Weather History for New Delhi, India

Change the Weather History Date:

Wednesday, October 5, 2011

  Actual Average Record
Temperature  
Mean Temperature 82 °F -  
Max Temperature 91 °F 87 °F 102 °F (2007)
Min Temperature 73 °F 65 °F 68 °F (2003)
Cooling Degree Days 17    
Growing Degree Days 32 (Base 50)    
Moisture  
Dew Point 66 °F    
Average Humidity 57    
Maximum Humidity 83    
Minimum Humidity 36    
Precipitation  
Precipitation 0.00 in - - ()
Sea Level Pressure  
Sea Level Pressure 29.86 in    
Wind  
Wind Speed 4 mph ()    
Max Wind Speed 12 mph    
Max Gust Speed -    
Visibility 2.2 miles    
Events      
Averages and records for this station are not official NWS values.
T = Trace of Precipitation, MM = Missing Value Source: Averaged Metar Reports

Daily Weather History Graph

Daily Weather History Graph

Search for Another Location

Airport:

Trip Planner

Search our weather history database for the weather conditions in past years. The results will help you decide how hot, cold, wet, or windy it might be!

Date:

Astronomy

Oct. 05, 2011 Rise Set
Actual Time 6:16 AM IST 6:03 PM IST
Civil Twilight 5:52 AM IST 6:27 PM IST
Nautical Twilight 5:25 AM IST 6:54 PM IST
Astronomical Twilight 4:57 AM IST 7:21 PM IST
Moon 1:58 PM IST (10/5) No Moon Set
Length of Visible Light 12h 34m
Length of Day
11h 47m
Waxing Gibbous, 62% of the Moon is Illuminated
Oct 5
Waxing Gibbous
Oct 12
Full
Oct 20
Last Quarter
Oct 27
New
Nov 2
First Quarter

Hourly Weather History & Observations

Time (IST) Temp. Heat Index Dew Point Humidity Pressure Visibility Wind Dir Wind Speed Gust Speed Precip Events Conditions
12:00 AM 82.4 °F 86.3 °F 69.8 °F 66% 29.80 in 1.6 mi SSE 3.5 mph - N/A   Haze
12:30 AM 82.4 °F 85.4 °F 68.0 °F 62% 29.80 in 1.6 mi SSE 3.5 mph - N/A   Haze
1:00 AM 82.4 °F 86.3 °F 69.8 °F 66% 29.80 in 1.6 mi SSE 3.5 mph - N/A   Haze
1:30 AM 80.6 °F 83.9 °F 69.8 °F 70% 29.80 in 1.6 mi SSE 3.5 mph - N/A   Haze
2:00 AM 80.6 °F 83.2 °F 68.0 °F 65% 29.80 in 1.6 mi SSE 5.8 mph - N/A   Haze
2:30 AM 80.6 °F 83.2 °F 68.0 °F 65% 29.80 in 1.6 mi SSE 3.5 mph - N/A   Haze
3:00 AM 78.8 °F - 68.0 °F 69% 29.80 in 1.6 mi SSE 3.5 mph - N/A   Haze
3:30 AM 78.8 °F - 68.0 °F 69% 29.80 in 1.6 mi Calm Calm - N/A   Haze
4:00 AM 78.8 °F - 68.0 °F 69% 29.80 in 1.6 mi Calm Calm - N/A   Haze
4:30 AM 78.8 °F - 68.0 °F 69% 29.80 in 1.5 mi Calm Calm - N/A   Haze
5:00 AM 78.8 °F - 68.0 °F 69% 29.83 in 1.4 mi SW 4.6 mph - N/A   Haze
5:30 AM 75.2 °F - 68.0 °F 78% 29.83 in 1.4 mi WSW 4.6 mph - N/A   Mist
6:00 AM 73.4 °F - 68.0 °F 83% 29.83 in 1.4 mi WSW 5.8 mph - N/A   Mist
6:30 AM 73.4 °F - 66.2 °F 78% 29.86 in 1.4 mi SW 4.6 mph - N/A   Mist
7:00 AM 73.4 °F - 66.2 °F 78% 29.86 in 1.4 mi SW 4.6 mph - N/A   Mist
7:30 AM 75.2 °F - 66.2 °F 73% 29.89 in 1.6 mi SW 3.5 mph - N/A   Mist
8:30 AM 78.8 °F - 64.4 °F 61% 29.92 in 2.2 mi West 8.1 mph - N/A   Haze
9:00 AM 80.6 °F 82.3 °F 64.4 °F 58% 29.92 in 2.5 mi West 9.2 mph - N/A   Haze
9:30 AM 82.4 °F 83.9 °F 64.4 °F 54% 29.92 in 2.8 mi West 8.1 mph - N/A   Haze
10:30 AM 86.0 °F 87.3 °F 64.4 °F 48% 29.95 in 3.1 mi WNW 11.5 mph - N/A   Haze
11:00 AM 86.0 °F 86.6 °F 62.6 °F 45% 29.95 in 3.1 mi West 9.2 mph - N/A   Haze
11:30 AM 87.8 °F 89.4 °F 64.4 °F 46% 29.92 in 3.1 mi WNW 9.2 mph - N/A   Haze
12:00 PM 87.8 °F 89.4 °F 64.4 °F 46% 29.92 in 3.1 mi NW 6.9 mph - N/A   Haze
12:30 PM 89.6 °F 92.2 °F 66.2 °F 46% 29.92 in 3.1 mi WNW 6.9 mph - N/A   Haze
1:00 PM 89.6 °F 92.2 °F 66.2 °F 46% 29.89 in 2.8 mi WNW 5.8 mph - N/A   Haze
1:30 PM 91.4 °F 94.0 °F 66.2 °F 43% 29.89 in 2.8 mi West 6.9 mph - N/A   Haze
2:00 PM 91.4 °F 93.2 °F 64.4 °F 41% 29.86 in 2.8 mi NW 8.1 mph - N/A   Haze
2:30 PM 91.4 °F 93.2 °F 64.4 °F 41% 29.86 in 2.8 mi NW 9.2 mph - N/A   Haze
3:00 PM 91.4 °F 92.1 °F 62.6 °F 38% 29.86 in 2.8 mi NW 6.9 mph - N/A   Haze
3:30 PM 91.4 °F 92.1 °F 62.6 °F 38% 29.86 in 2.8 mi NNW 6.9 mph - N/A   Haze
4:00 PM 91.4 °F 91.4 °F 60.8 °F 36% 29.83 in 2.8 mi NW 5.8 mph - N/A   Haze
5:00 PM 91.4 °F 91.4 °F 60.8 °F 36% 29.83 in 3.1 mi NW 6.9 mph - N/A   Haze
5:30 PM 91.4 °F 91.4 °F 60.8 °F 36% 29.83 in 3.1 mi NW 6.9 mph - N/A   Haze
6:00 PM 89.6 °F 90.1 °F 62.6 °F 40% 29.86 in 3.1 mi NW 6.9 mph - N/A   Haze
6:30 PM 87.8 °F 88.5 °F 62.6 °F 43% 29.86 in 2.8 mi NNW 5.8 mph - N/A   Haze
7:00 PM 86.0 °F 87.3 °F 64.4 °F 48% 29.86 in 2.5 mi North 4.6 mph - N/A   Haze
7:30 PM 86.0 °F 87.3 °F 64.4 °F 48% 29.86 in 2.5 mi North 5.8 mph - N/A   Haze
8:00 PM 86.0 °F 88.2 °F 66.2 °F 51% 29.86 in 2.2 mi NNE 4.6 mph - N/A   Haze
8:30 PM 84.2 °F 86.6 °F 66.2 °F 55% 29.89 in 2.2 mi NNE 4.6 mph - N/A   Haze
9:00 PM 84.2 °F 87.3 °F 68.0 °F 58% 29.89 in 2.2 mi NNE 4.6 mph - N/A   Haze
10:00 PM 82.4 °F 85.4 °F 68.0 °F 62% 29.89 in 1.7 mi ENE 3.5 mph - N/A   Haze
10:30 PM 80.6 °F 83.2 °F 68.0 °F 65% 29.89 in 1.7 mi Calm Calm - N/A   Unknown
11:00 PM 80.6 °F 83.2 °F 68.0 °F 65% 29.89 in 1.6 mi NE 2.3 mph - N/A   Haze
11:30 PM 80.6 °F 83.9 °F 69.8 °F 70% 29.89 in 1.6 mi Calm Calm - N/A   Haze